Regional Weather Roundup
Issued by NWS

Home | Current Version | Previous Version | Graphics & Text | Print | Product List | Glossary On
Versions: 1 2 3 4 5 6 7 8 9 10 11 12 13 14 15 16 17 18 19 20 21 22 23 24 25 26 27 28 29 30 31 32 33 34 35 36 37 38 39 40 41 42 43 44 45 46 47 48 49 50
000
ASUS43 KBIS 310410
RWRND

NORTH DAKOTA REGIONAL WEATHER ROUNDUP
NATIONAL WEATHER SERVICE BISMARCK ND
1100 PM CDT SAT JUL 30 2016

NOTE: "FAIR" INDICATES FEW OR NO CLOUDS BELOW 12,000 FEET WITH NO
SIGNIFICANT WEATHER AND/OR OBSTRUCTIONS TO VISIBILITY.


NDZ001>003-009>011-017-310500-
NORTHWEST NORTH DAKOTA

CITY           SKY/WX    TMP DP  RH WIND       PRES   REMARKS
WILLISTON      CLOUDY    76  55  48 SE7       29.76S
MINOT          CLEAR     72  66  81 E7        29.80S
MINOT AFB      CLEAR     67  64  89 SE10      29.79S
$$

NDZ018>021-031>035-040>046-310500-
SOUTHWEST NORTH DAKOTA

CITY           SKY/WX    TMP DP  RH WIND       PRES   REMARKS
BISMARCK       CLEAR     72  63  73 SE12      29.80S
DICKINSON      CLEAR     71  59  65 SE9       29.77F
GARRISON         N/A     73  67  81 SE8       29.80R
HETTINGER ARPT CLEAR     75  58  55 E13       29.79F
$$

NDZ004>008-012>016-024-026-027-054-310500-
NORTHEAST NORTH DAKOTA

CITY           SKY/WX    TMP DP  RH WIND       PRES   REMARKS
GRAND FORKS    CLEAR     71  59  65 SE10      29.88S
GRND FRKS AFB  CLEAR     68  61  76 S10       29.89R
DEVILS LAKE    PTCLDY    71  63  75 SE14      29.87S
$$

NDZ022-023-025-028>030-036>039-047>053-310500-
SOUTHEAST NORTH DAKOTA

CITY           SKY/WX    TMP DP  RH WIND       PRES   REMARKS
FARGO          CLEAR     72  57  59 SE10      29.91S
JAMESTOWN      CLEAR     69  61  75 SE14      29.88R
$$




USA.gov is the U.S. government's official web portal to all federal, state and local government web resources and services.